Skip Page Navigation
NASA JPL Caltech
NASA Logo - Jet Propulsion Laboratory + View the NASA Portal
+ Near-Earth Object (NEO) Program
Search JPL
JPL Home Earth Solar System Stars & Galaxies Technology
JPL Solar System Dynamics
BODIES ORBITS EPHEMERIDES TOOLS PHYSICAL DATA DISCOVERY FAQ SITE MAP
JPL Small-Body Database Browser
Search: [ help ]  
10003 (1971 UD1)
Classification: Main-belt Asteroid          SPK-ID: 2010003
Ephemeris | Orbit Diagram | Orbital Elements | Physical Parameters | Discovery Circumstances ]

[ show orbit diagram ]
Orbital Elements at Epoch 2457000.5 (2014-Dec-09.0) TDB
Reference: JPL 5 (heliocentric ecliptic J2000)
 Element Value Uncertainty (1-sigma)   Units 
e .1286936330816192 5.3062e-08  
a 2.212367642639873 1.2832e-08 AU
q 1.927650012996331 1.2006e-07 AU
i 1.577124643660146 5.2712e-06 deg
node 99.61059462053758 0.0002008 deg
peri 278.1067873785952 0.00020203 deg
M 50.21999337830121 2.7059e-05 deg
tp 2456832.828780048988
(2014-Jun-24.32878005)
8.9615e-05 JED
period 1201.944387520469
3.29
1.0457e-05
2.863e-08
d
yr
n .2995146894796489 2.6059e-09 deg/d
Q 2.497085272283416 1.4484e-08 AU
  Orbit Determination Parameters
   # obs. used (total)      1069  
   data-arc span      15641 days (42.82 yr)  
   first obs. used      1971-10-26  
   last obs. used      2014-08-22  
   planetary ephem.      DE431  
   SB-pert. ephem.      SB431-BIG16  
   condition code      0  
   fit RMS      .53133  
   data source      ORB  
   producer      Otto Matic  
   solution date      2014-Sep-12 13:56:03  

Additional Information
 Earth MOID = .929955 AU 
 T_jup = 3.645 
[ show covariance matrix ]

Ephemeris | Orbit Diagram | Orbital Elements | Physical Parameters | Discovery Circumstances ]

Physical Parameter Table
Parameter Symbol Value Units Sigma Reference Notes
absolute magnitude H 14.4 mag n/a MPO266011  

10003 (1971 UD1)          Discovered 1971-Oct-26 by Kohoutek, L. at Bergedorf (029)
Reference: 19990302/Numbers.arcLast Updated: 2004-04-19

Alternate Designations
 1971 UD1 = 1984 SU4 
Ephemeris | Orbit Diagram | Orbital Elements | Physical Parameters | Discovery Circumstances ]
ABOUT SSD CREDITS/AWARDS PRIVACY/COPYRIGHT GLOSSARY LINKS
FirstGov 2014-Sep-21 12:07 UT
(server date/time)  
NASA Home Page
Site Manager:   Donald K. Yeomans
Webmaster  Alan B. Chamberlin